Time,TemperatureF,DewpointF,PressureIn,WindDirection,WindDirectionDegrees,WindSpeedMPH,WindSpeedGustMPH,Humidity,HourlyPrecipIn,Conditions,Clouds,dailyrainin,SolarRadiationWatts/m^2,SoftwareType,DateUTC
2013-01-26 10:10:00,23.7,19.3,30.32,NW,309,3.0,3.0,83,0.00,,,0.00,153.00,VWS V14.01,2013-01-26 15:10:00,
2013-01-26 10:11:00,23.8,19.4,30.32,NW,309,3.0,4.0,83,0.00,,,0.00,151.00,VWS V14.01,2013-01-26 15:11:00,
2013-01-26 10:16:00,23.8,19.4,30.32,WNW,294,1.0,2.0,83,0.00,,,0.00,169.00,VWS V14.01,2013-01-26 15:16:00,
2013-01-26 10:21:00,23.9,19.5,30.32,West,260,2.0,2.0,83,0.00,,,0.00,181.00,VWS V14.01,2013-01-26 15:21:00,
2013-01-26 10:26:00,24.0,19.6,30.33,NW,307,3.0,3.0,83,0.00,,,0.00,183.00,VWS V14.01,2013-01-26 15:26:00,
2013-01-26 10:31:00,24.0,19.3,30.33,WNW,296,4.0,4.0,82,0.00,,,0.00,204.00,VWS V14.01,2013-01-26 15:31:00,
2013-01-26 10:36:00,24.1,19.7,30.33,WNW,296,3.0,4.0,83,0.00,,,0.00,199.00,VWS V14.01,2013-01-26 15:36:00,
2013-01-26 10:41:00,24.2,19.8,30.34,NW,317,2.0,2.0,83,0.00,,,0.00,178.00,VWS V14.01,2013-01-26 15:41:00,
2013-01-26 10:46:00,24.1,19.4,30.34,NW,304,4.0,6.0,82,0.00,,,0.00,171.00,VWS V14.01,2013-01-26 15:46:00,
2013-01-26 10:51:00,24.1,19.7,30.35,WNW,288,3.0,3.0,83,0.00,,,0.00,172.00,VWS V14.01,2013-01-26 15:51:00,
2013-01-26 10:55:00,24.2,19.8,30.35,NW,315,2.0,2.0,83,0.00,,,0.00,171.00,VWS V14.01,2013-01-26 15:55:00,
2013-01-26 11:00:00,24.3,19.9,30.35,NW,310,3.0,4.0,83,0.00,,,0.00,209.00,VWS V14.01,2013-01-26 16:00:00,
2013-01-26 11:05:00,24.2,19.8,30.35,WNW,302,2.0,3.0,83,0.00,,,0.00,214.00,VWS V14.01,2013-01-26 16:05:00,
2013-01-26 11:10:00,24.4,20.0,30.36,WNW,302,1.0,2.0,83,0.00,,,0.00,227.00,VWS V14.01,2013-01-26 16:10:00,
2013-01-26 11:15:00,24.4,20.0,30.36,WNW,302,2.0,2.0,83,0.00,,,0.00,209.00,VWS V14.01,2013-01-26 16:15:00,
2013-01-26 11:21:00,24.4,19.7,30.36,WNW,302,0.0,0.0,82,0.00,,,0.00,227.00,VWS V14.01,2013-01-26 16:21:00,
2013-01-26 11:26:00,24.5,19.8,30.36,WNW,302,1.0,3.0,82,0.00,,,0.00,251.00,VWS V14.01,2013-01-26 16:26:00,
2013-01-26 11:31:00,24.7,20.0,30.36,WNW,302,1.0,2.0,82,0.00,,,0.00,248.00,VWS V14.01,2013-01-26 16:31:00,
2013-01-26 11:36:00,24.8,20.4,30.36,WNW,302,0.0,1.0,83,0.00,,,0.00,265.00,VWS V14.01,2013-01-26 16:36:00,
2013-01-26 11:41:00,25.0,20.3,30.36,WNW,302,2.0,2.0,82,0.00,,,0.00,299.00,VWS V14.01,2013-01-26 16:41:00,
2013-01-26 11:46:00,24.9,20.2,30.36,WNW,302,2.0,3.0,82,0.00,,,0.00,264.00,VWS V14.01,2013-01-26 16:46:00,
2013-01-26 11:51:00,24.8,20.1,30.36,WNW,302,1.0,1.0,82,0.00,,,0.00,276.00,VWS V14.01,2013-01-26 16:51:00,
2013-01-26 11:55:00,24.9,20.2,30.36,WNW,302,1.0,1.0,82,0.00,,,0.00,283.00,VWS V14.01,2013-01-26 16:55:00,
2013-01-26 12:00:00,25.4,20.7,30.36,WNW,302,0.0,0.0,82,0.00,,,0.00,301.00,VWS V14.01,2013-01-26 17:00:00,
2013-01-26 12:05:00,25.7,20.4,30.36,WNW,302,2.0,2.0,80,0.00,,,0.00,315.00,VWS V14.01,2013-01-26 17:05:00,
2013-01-26 12:10:00,25.6,20.3,30.36,WNW,286,0.0,1.0,80,0.00,,,0.00,336.00,VWS V14.01,2013-01-26 17:10:00,
2013-01-26 12:15:00,25.7,20.1,30.36,WNW,286,0.0,0.0,79,0.00,,,0.00,360.00,VWS V14.01,2013-01-26 17:15:00,
2013-01-26 12:20:00,25.8,19.9,30.36,WNW,286,1.0,1.0,78,0.00,,,0.00,274.00,VWS V14.01,2013-01-26 17:20:00,
2013-01-26 12:25:00,25.8,19.9,30.36,WNW,286,2.0,2.0,78,0.00,,,0.00,274.00,VWS V14.01,2013-01-26 17:25:00,
2013-01-26 12:30:00,25.8,20.2,30.36,WNW,298,3.0,3.0,79,0.00,,,0.00,281.00,VWS V14.01,2013-01-26 17:30:00,
2013-01-26 12:35:00,25.9,20.0,30.36,WNW,285,0.0,0.0,78,0.00,,,0.00,297.00,VWS V14.01,2013-01-26 17:35:00,
2013-01-26 12:40:00,26.0,20.1,30.36,WNW,285,0.0,0.0,78,0.00,,,0.00,315.00,VWS V14.01,2013-01-26 17:40:00,
2013-01-26 12:45:00,26.1,19.9,30.35,WNW,285,0.0,0.0,77,0.01,,,0.01,309.00,VWS V14.01,2013-01-26 17:45:00,
2013-01-26 12:50:00,26.4,19.9,30.35,WNW,285,3.0,3.0,76,0.01,,,0.01,299.00,VWS V14.01,2013-01-26 17:50:00,
2013-01-26 12:55:00,26.4,19.6,30.35,West,261,8.0,8.0,75,0.01,,,0.01,255.00,VWS V14.01,2013-01-26 17:55:00,
2013-01-26 13:00:00,26.1,19.3,30.35,West,281,2.0,3.0,75,0.01,,,0.01,230.00,VWS V14.01,2013-01-26 18:00:00,
2013-01-26 13:05:00,26.0,19.5,30.35,West,281,2.0,3.0,76,0.01,,,0.01,230.00,VWS V14.01,2013-01-26 18:05:00,
2013-01-26 13:10:00,26.0,20.1,30.35,NW,308,4.0,4.0,78,0.01,,,0.01,223.00,VWS V14.01,2013-01-26 18:10:00,
2013-01-26 13:15:00,26.0,20.1,30.35,WNW,292,3.0,3.0,78,0.01,,,0.01,221.00,VWS V14.01,2013-01-26 18:15:00,
2013-01-26 13:20:00,26.1,20.5,30.35,West,275,4.0,4.0,79,0.01,,,0.01,221.00,VWS V14.01,2013-01-26 18:20:00,
2013-01-26 13:25:00,26.0,20.4,30.35,West,275,3.0,3.0,79,0.01,,,0.01,227.00,VWS V14.01,2013-01-26 18:25:00,
2013-01-26 13:30:00,26.2,20.6,30.35,West,275,0.0,0.0,79,0.01,,,0.01,232.00,VWS V14.01,2013-01-26 18:30:00,
2013-01-26 13:35:00,26.3,20.7,30.35,West,275,0.0,0.0,79,0.01,,,0.01,246.00,VWS V14.01,2013-01-26 18:35:00,
2013-01-26 13:40:00,26.0,20.4,30.35,West,279,2.0,3.0,79,0.01,,,0.01,225.00,VWS V14.01,2013-01-26 18:40:00,
2013-01-26 13:45:00,26.0,20.7,30.35,West,279,2.0,3.0,80,0.01,,,0.02,236.00,VWS V14.01,2013-01-26 18:45:00,
2013-01-26 13:50:00,26.0,20.4,30.35,West,263,2.0,3.0,79,0.01,,,0.02,221.00,VWS V14.01,2013-01-26 18:50:00,
2013-01-26 13:55:00,26.0,20.4,30.35,West,259,3.0,4.0,79,0.01,,,0.02,241.00,VWS V14.01,2013-01-26 18:55:00,
2013-01-26 14:00:00,26.1,20.5,30.35,West,259,0.0,0.0,79,0.01,,,0.02,218.00,VWS V14.01,2013-01-26 19:00:00,
2013-01-26 14:05:00,26.3,20.7,30.35,West,259,2.0,2.0,79,0.01,,,0.02,230.00,VWS V14.01,2013-01-26 19:05:00,
2013-01-26 14:10:00,26.3,20.7,30.35,West,259,1.0,1.0,79,0.01,,,0.02,248.00,VWS V14.01,2013-01-26 19:10:00,
2013-01-26 14:15:00,26.6,21.3,30.35,West,259,1.0,2.0,80,0.01,,,0.02,255.00,VWS V14.01,2013-01-26 19:15:00,
2013-01-26 14:20:00,26.6,21.0,30.35,West,259,0.0,0.0,79,0.01,,,0.02,255.00,VWS V14.01,2013-01-26 19:20:00,
2013-01-26 14:25:00,26.9,21.3,30.35,West,259,1.0,2.0,79,0.01,,,0.02,250.00,VWS V14.01,2013-01-26 19:25:00,
2013-01-26 14:30:00,26.8,20.6,30.34,NW,306,2.0,3.0,77,0.01,,,0.02,246.00,VWS V14.01,2013-01-26 19:30:00,
2013-01-26 14:35:00,26.8,20.6,30.34,West,280,2.0,2.0,77,0.01,,,0.02,251.00,VWS V14.01,2013-01-26 19:35:00,
2013-01-26 14:40:00,27.0,20.8,30.35,West,280,1.0,2.0,77,0.01,,,0.02,223.00,VWS V14.01,2013-01-26 19:40:00,
2013-01-26 14:45:00,27.2,21.0,30.35,West,280,0.0,0.0,77,0.00,,,0.02,250.00,VWS V14.01,2013-01-26 19:45:00,
2013-01-26 14:50:00,27.3,20.8,30.35,WNW,297,4.0,4.0,76,0.00,,,0.02,294.00,VWS V14.01,2013-01-26 19:50:00,
2013-01-26 14:55:00,27.4,20.8,30.35,WNW,300,3.0,3.0,76,0.00,,,0.02,255.00,VWS V14.01,2013-01-26 19:55:00,
2013-01-26 15:00:00,27.5,20.3,30.35,West,276,4.0,4.0,74,0.00,,,0.02,246.00,VWS V14.01,2013-01-26 20:00:00,
2013-01-26 15:05:00,27.5,20.0,30.35,WNW,301,3.0,4.0,73,0.00,,,0.02,179.00,VWS V14.01,2013-01-26 20:05:00,
2013-01-26 15:10:00,27.3,19.8,30.35,WNW,300,7.0,7.0,73,0.00,,,0.02,165.00,VWS V14.01,2013-01-26 20:10:00,
2013-01-26 15:15:00,27.1,19.0,30.35,WNW,290,9.0,9.0,71,0.00,,,0.02,146.00,VWS V14.01,2013-01-26 20:15:00,
2013-01-26 15:20:00,27.1,18.6,30.36,West,280,4.0,4.0,70,0.00,,,0.02,169.00,VWS V14.01,2013-01-26 20:20:00,
2013-01-26 15:25:00,27.3,19.1,30.35,SSW,213,4.0,5.0,71,0.00,,,0.02,163.00,VWS V14.01,2013-01-26 20:25:00,
2013-01-26 15:30:00,27.4,19.2,30.36,WSW,258,5.0,6.0,71,0.00,,,0.02,130.00,VWS V14.01,2013-01-26 20:30:00,
2013-01-26 15:35:00,27.4,19.2,30.36,West,271,5.0,5.0,71,0.00,,,0.02,121.00,VWS V14.01,2013-01-26 20:35:00,
2013-01-26 15:40:00,27.3,19.1,30.36,West,269,5.0,8.0,71,0.00,,,0.02,120.00,VWS V14.01,2013-01-26 20:40:00,
2013-01-26 15:45:00,27.4,19.2,30.36,West,275,4.0,4.0,71,0.00,,,0.02,121.00,VWS V14.01,2013-01-26 20:45:00,
2013-01-26 15:50:00,27.4,19.2,30.36,WNW,298,5.0,7.0,71,0.00,,,0.02,107.00,VWS V14.01,2013-01-26 20:50:00,
2013-01-26 15:55:00,27.2,18.4,30.37,WNW,286,5.0,6.0,69,0.00,,,0.02,97.00,VWS V14.01,2013-01-26 20:55:00,
2013-01-26 16:00:00,27.2,18.4,30.36,WNW,290,3.0,4.0,69,0.00,,,0.02,91.00,VWS V14.01,2013-01-26 21:00:00,
2013-01-26 16:05:00,27.1,18.3,30.37,WNW,302,3.0,4.0,69,0.00,,,0.02,86.00,VWS V14.01,2013-01-26 21:05:00,
2013-01-26 16:10:00,27.1,18.0,30.36,NW,313,3.0,3.0,68,0.00,,,0.02,84.00,VWS V14.01,2013-01-26 21:10:00,
2013-01-26 16:15:00,27.1,18.3,30.37,WNW,283,4.0,5.0,69,0.00,,,0.02,77.00,VWS V14.01,2013-01-26 21:15:00,
2013-01-26 16:20:00,27.2,18.4,30.37,WNW,290,3.0,3.0,69,0.00,,,0.02,72.00,VWS V14.01,2013-01-26 21:20:00,
2013-01-26 16:25:00,27.2,18.7,30.38,WNW,290,2.0,3.0,70,0.00,,,0.02,63.00,VWS V14.01,2013-01-26 21:25:00,
2013-01-26 16:30:00,27.2,18.7,30.38,WNW,290,2.0,3.0,70,0.00,,,0.02,54.00,VWS V14.01,2013-01-26 21:30:00,
2013-01-26 16:35:00,27.2,19.1,30.38,WNW,290,2.0,3.0,71,0.00,,,0.02,53.00,VWS V14.01,2013-01-26 21:35:00,
2013-01-26 16:40:00,27.3,19.1,30.38,WNW,290,2.0,3.0,71,0.00,,,0.02,46.00,VWS V14.01,2013-01-26 21:40:00,
2013-01-26 16:45:00,27.2,19.1,30.38,NW,306,3.0,3.0,71,0.00,,,0.02,40.00,VWS V14.01,2013-01-26 21:45:00,
2013-01-26 16:50:00,27.2,19.4,30.37,West,264,2.0,3.0,72,0.00,,,0.02,37.00,VWS V14.01,2013-01-26 21:50:00,
2013-01-26 16:55:00,27.2,19.4,30.37,West,264,1.0,1.0,72,0.00,,,0.02,32.00,VWS V14.01,2013-01-26 21:55:00,
2013-01-26 17:00:00,27.1,21.2,30.38,West,263,0.0,0.0,78,0.00,,,0.02,28.00,VWS V14.01,2013-01-26 22:00:00,
2013-01-26 17:05:00,27.1,21.8,30.38,West,264,1.0,2.0,80,0.00,,,0.02,23.00,VWS V14.01,2013-01-26 22:05:00,
2013-01-26 17:10:00,27.2,21.9,30.39,West,261,2.0,2.0,80,0.00,,,0.02,19.00,VWS V14.01,2013-01-26 22:10:00,
2013-01-26 17:15:00,27.2,21.9,30.40,SW,233,5.0,6.0,80,0.00,,,0.02,16.00,VWS V14.01,2013-01-26 22:15:00,
2013-01-26 17:20:00,27.0,21.7,30.40,SW,234,1.0,3.0,80,0.00,,,0.02,12.00,VWS V14.01,2013-01-26 22:20:00,
2013-01-26 17:25:00,26.9,21.9,30.40,SSW,205,2.0,3.0,81,0.00,,,0.02,12.00,VWS V14.01,2013-01-26 22:25:00,
2013-01-26 17:30:00,26.8,21.8,30.40,SSW,213,2.0,3.0,81,0.00,,,0.02,9.00,VWS V14.01,2013-01-26 22:30:00,
2013-01-26 17:35:00,26.7,21.7,30.40,WSW,239,1.0,2.0,81,0.00,,,0.02,7.00,VWS V14.01,2013-01-26 22:35:00,
2013-01-26 17:40:00,26.6,21.6,30.40,WSW,239,3.0,3.0,81,0.00,,,0.02,5.00,VWS V14.01,2013-01-26 22:40:00,
2013-01-26 17:45:00,26.5,21.5,30.40,WSW,239,1.0,3.0,81,0.00,,,0.02,0.00,VWS V14.01,2013-01-26 22:45:00,
2013-01-26 17:50:00,26.5,21.5,30.40,WSW,239,1.0,1.0,81,0.00,,,0.02,0.00,VWS V14.01,2013-01-26 22:50:00,
2013-01-26 17:55:00,26.5,21.5,30.40,WNW,300,2.0,4.0,81,0.00,,,0.02,0.00,VWS V14.01,2013-01-26 22:55:00,
2013-01-26 18:00:00,26.3,20.4,30.41,NW,321,2.0,3.0,78,0.00,,,0.02,0.00,VWS V14.01,2013-01-26 23:00:00,
2013-01-26 18:05:00,26.3,19.8,30.40,West,275,2.0,4.0,76,0.00,,,0.02,0.00,VWS V14.01,2013-01-26 23:05:00,
2013-01-26 18:10:00,26.3,19.5,30.40,West,271,1.0,4.0,75,0.00,,,0.02,0.00,VWS V14.01,2013-01-26 23:10:00,
2013-01-26 18:15:00,26.3,19.1,30.40,NW,306,1.0,3.0,74,0.00,,,0.02,0.00,VWS V14.01,2013-01-26 23:15:00,
2013-01-26 18:20:00,26.3,19.1,30.40,NW,306,1.0,2.0,74,0.00,,,0.02,0.00,VWS V14.01,2013-01-26 23:20:00,
2013-01-26 18:25:00,26.3,19.1,30.40,NW,306,0.0,1.0,74,0.00,,,0.02,0.00,VWS V14.01,2013-01-26 23:25:00,
2013-01-26 18:30:00,26.3,19.1,30.39,NW,306,0.0,1.0,74,0.00,,,0.02,0.00,VWS V14.01,2013-01-26 23:30:00,
2013-01-26 18:35:00,26.3,19.1,30.39,NW,306,0.0,0.0,74,0.00,,,0.02,0.00,VWS V14.01,2013-01-26 23:35:00,
2013-01-26 18:40:00,26.3,19.1,30.39,NW,306,0.0,0.0,74,0.00,,,0.02,0.00,VWS V14.01,2013-01-26 23:40:00,
2013-01-26 18:45:00,26.3,19.5,30.39,NW,306,0.0,0.0,75,0.00,,,0.02,0.00,VWS V14.01,2013-01-26 23:45:00,
2013-01-26 18:50:00,26.3,19.1,30.40,NW,306,0.0,0.0,74,0.00,,,0.02,0.00,VWS V14.01,2013-01-26 23:50:00,
2013-01-26 18:55:00,26.3,19.1,30.40,NW,306,0.0,0.0,74,0.00,,,0.02,0.00,VWS V14.01,2013-01-26 23:55:00,
2013-01-26 19:00:00,26.2,19.4,30.41,NW,306,0.0,0.0,75,0.00,,,0.02,0.00,VWS V14.01,2013-01-27 00:00:00,
2013-01-26 19:05:00,26.2,19.1,30.41,NW,306,0.0,0.0,74,0.00,,,0.02,0.00,VWS V14.01,2013-01-27 00:05:00,
2013-01-26 19:10:00,26.1,19.0,30.41,NW,306,0.0,1.0,74,0.00,,,0.02,0.00,VWS V14.01,2013-01-27 00:10:00,
2013-01-26 19:15:00,26.1,19.0,30.41,NW,306,0.0,0.0,74,0.00,,,0.02,0.00,VWS V14.01,2013-01-27 00:15:00,
2013-01-26 19:20:00,26.0,18.9,30.41,NW,306,0.0,0.0,74,0.00,,,0.02,0.00,VWS V14.01,2013-01-27 00:20:00,
2013-01-26 19:25:00,25.8,18.7,30.41,NW,306,0.0,1.0,74,0.00,,,0.02,0.00,VWS V14.01,2013-01-27 00:25:00,
2013-01-26 19:30:00,25.6,18.8,30.41,NW,306,0.0,0.0,75,0.00,,,0.02,0.00,VWS V14.01,2013-01-27 00:30:00,
2013-01-26 19:35:00,25.2,18.4,30.41,NW,306,0.0,0.0,75,0.00,,,0.02,0.00,VWS V14.01,2013-01-27 00:35:00,
2013-01-26 19:40:00,25.1,18.6,30.41,NW,306,0.0,0.0,76,0.00,,,0.02,0.00,VWS V14.01,2013-01-27 00:40:00,
2013-01-26 19:45:00,24.8,18.3,30.41,NW,306,0.0,0.0,76,0.00,,,0.02,0.00,VWS V14.01,2013-01-27 00:45:00,
2013-01-26 19:50:00,24.6,18.1,30.42,NW,306,0.0,0.0,76,0.00,,,0.02,0.00,VWS V14.01,2013-01-27 00:50:00,
2013-01-26 19:55:00,24.3,17.8,30.41,NW,306,0.0,0.0,76,0.00,,,0.02,0.00,VWS V14.01,2013-01-27 00:55:00,
2013-01-26 20:00:00,24.0,17.5,30.41,NW,306,0.0,0.0,76,0.00,,,0.02,0.00,VWS V14.01,2013-01-27 01:00:00,
2013-01-26 20:05:00,23.0,17.2,30.41,NW,306,1.0,2.0,78,0.00,,,0.02,0.00,VWS V14.01,2013-01-27 01:05:00,
2013-01-26 20:10:00,22.5,17.3,30.41,NW,306,0.0,1.0,80,0.00,,,0.02,0.00,VWS V14.01,2013-01-27 01:10:00,
2013-01-26 20:15:00,22.0,17.1,30.40,NW,306,2.0,2.0,81,0.00,,,0.02,0.00,VWS V14.01,2013-01-27 01:15:00,
2013-01-26 20:20:00,21.3,17.0,30.39,NW,306,2.0,2.0,83,0.00,,,0.02,0.00,VWS V14.01,2013-01-27 01:20:00,
2013-01-26 20:25:00,20.8,16.5,30.39,NW,306,1.0,1.0,83,0.00,,,0.02,0.00,VWS V14.01,2013-01-27 01:25:00,
2013-01-26 20:30:00,20.3,16.0,30.39,NW,306,1.0,2.0,83,0.00,,,0.02,0.00,VWS V14.01,2013-01-27 01:30:00,
2013-01-26 20:35:00,19.9,15.9,30.39,NW,306,0.0,0.0,84,0.00,,,0.02,0.00,VWS V14.01,2013-01-27 01:35:00,
2013-01-26 20:40:00,19.7,15.7,30.40,NW,306,2.0,2.0,84,0.00,,,0.02,0.00,VWS V14.01,2013-01-27 01:40:00,
2013-01-26 20:45:00,19.6,15.8,30.41,NW,306,1.0,1.0,85,0.00,,,0.02,0.00,VWS V14.01,2013-01-27 01:45:00,
2013-01-26 20:50:00,19.6,16.1,30.41,NW,306,0.0,0.0,86,0.00,,,0.02,0.00,VWS V14.01,2013-01-27 01:50:00,
2013-01-26 20:55:00,19.6,16.1,30.41,NW,306,0.0,0.0,86,0.00,,,0.02,0.00,VWS V14.01,2013-01-27 01:55:00,
2013-01-26 21:00:00,19.4,15.9,30.41,NW,306,0.0,0.0,86,0.00,,,0.02,0.00,VWS V14.01,2013-01-27 02:00:00,
2013-01-26 21:05:00,18.9,15.1,30.41,NW,306,0.0,1.0,85,0.00,,,0.02,0.00,VWS V14.01,2013-01-27 02:05:00,
2013-01-26 21:10:00,18.5,14.8,30.41,NW,306,1.0,1.0,85,0.00,,,0.02,0.00,VWS V14.01,2013-01-27 02:10:00,
2013-01-26 21:15:00,18.2,14.7,30.41,NW,306,0.0,0.0,86,0.00,,,0.02,0.00,VWS V14.01,2013-01-27 02:15:00,
2013-01-26 21:20:00,18.1,14.6,30.42,NW,306,0.0,0.0,86,0.00,,,0.02,0.00,VWS V14.01,2013-01-27 02:20:00,
2013-01-26 21:25:00,18.1,14.6,30.43,NW,306,0.0,0.0,86,0.00,,,0.02,0.00,VWS V14.01,2013-01-27 02:25:00,
2013-01-26 21:30:00,18.1,14.9,30.43,NW,306,0.0,0.0,87,0.00,,,0.02,0.00,VWS V14.01,2013-01-27 02:30:00,
2013-01-26 21:35:00,18.1,14.9,30.43,NW,306,0.0,0.0,87,0.00,,,0.02,0.00,VWS V14.01,2013-01-27 02:35:00,
2013-01-26 21:40:00,17.9,14.7,30.42,NW,306,0.0,0.0,87,0.00,,,0.02,0.00,VWS V14.01,2013-01-27 02:40:00,
2013-01-26 21:45:00,17.8,14.6,30.42,NW,306,0.0,0.0,87,0.00,,,0.02,0.00,VWS V14.01,2013-01-27 02:45:00,
2013-01-26 21:50:00,17.7,14.5,30.42,NW,306,0.0,0.0,87,0.00,,,0.02,0.00,VWS V14.01,2013-01-27 02:50:00,
2013-01-26 21:55:00,17.7,14.8,30.42,NW,306,0.0,0.0,88,0.00,,,0.02,0.00,VWS V14.01,2013-01-27 02:55:00,
2013-01-26 22:00:00,17.7,14.8,30.42,NW,306,0.0,0.0,88,0.00,,,0.02,0.00,VWS V14.01,2013-01-27 03:00:00,
2013-01-26 22:05:00,17.6,14.7,30.42,NW,306,0.0,0.0,88,0.00,,,0.02,0.00,VWS V14.01,2013-01-27 03:05:00,
2013-01-26 22:10:00,17.6,14.7,30.42,NW,306,0.0,0.0,88,0.00,,,0.02,0.00,VWS V14.01,2013-01-27 03:10:00,
2013-01-26 22:15:00,17.7,15.0,30.42,NW,306,0.0,0.0,89,0.00,,,0.02,0.00,VWS V14.01,2013-01-27 03:15:00,
2013-01-26 22:20:00,17.8,15.1,30.42,NW,306,0.0,0.0,89,0.00,,,0.02,0.00,VWS V14.01,2013-01-27 03:20:00,
2013-01-26 22:25:00,17.7,15.0,30.42,NW,306,0.0,0.0,89,0.00,,,0.02,0.00,VWS V14.01,2013-01-27 03:25:00,
2013-01-26 22:30:00,17.6,14.9,30.43,NW,306,0.0,0.0,89,0.00,,,0.02,0.00,VWS V14.01,2013-01-27 03:30:00,
2013-01-26 22:35:00,17.6,14.9,30.43,NW,306,0.0,0.0,89,0.00,,,0.02,0.00,VWS V14.01,2013-01-27 03:35:00,
2013-01-26 22:40:00,17.5,14.8,30.43,NW,306,0.0,0.0,89,0.00,,,0.02,0.00,VWS V14.01,2013-01-27 03:40:00,
2013-01-26 22:45:00,17.3,14.6,30.43,NW,306,0.0,0.0,89,0.00,,,0.02,0.00,VWS V14.01,2013-01-27 03:45:00,
2013-01-26 22:50:00,17.2,14.5,30.42,NW,306,1.0,2.0,89,0.00,,,0.02,0.00,VWS V14.01,2013-01-27 03:50:00,
2013-01-26 22:55:00,17.2,14.8,30.42,NW,306,1.0,2.0,90,0.00,,,0.02,0.00,VWS V14.01,2013-01-27 03:55:00,
2013-01-26 23:00:00,17.2,14.8,30.42,NW,306,0.0,0.0,90,0.00,,,0.02,0.00,VWS V14.01,2013-01-27 04:00:00,
2013-01-26 23:05:00,17.2,14.8,30.43,NW,306,0.0,0.0,90,0.00,,,0.02,0.00,VWS V14.01,2013-01-27 04:05:00,
2013-01-26 23:10:00,17.2,14.8,30.43,NW,306,0.0,0.0,90,0.00,,,0.02,0.00,VWS V14.01,2013-01-27 04:10:00,
2013-01-26 23:15:00,17.3,14.9,30.44,NW,306,0.0,0.0,90,0.00,,,0.02,0.00,VWS V14.01,2013-01-27 04:15:00,
2013-01-26 23:20:00,17.3,14.9,30.44,NW,306,0.0,0.0,90,0.00,,,0.02,0.00,VWS V14.01,2013-01-27 04:20:00,
2013-01-26 23:25:00,17.5,15.1,30.44,NW,306,0.0,0.0,90,0.00,,,0.02,0.00,VWS V14.01,2013-01-27 04:25:00,
2013-01-26 23:30:00,17.5,15.3,30.44,NW,306,0.0,0.0,91,0.00,,,0.02,0.00,VWS V14.01,2013-01-27 04:30:00,
2013-01-26 23:35:00,17.4,15.2,30.43,NW,306,0.0,0.0,91,0.00,,,0.02,0.00,VWS V14.01,2013-01-27 04:35:00,
2013-01-26 23:40:00,17.4,15.0,30.43,NW,306,0.0,1.0,90,0.00,,,0.02,0.00,VWS V14.01,2013-01-27 04:40:00,
2013-01-26 23:45:00,17.3,14.9,30.43,NW,306,0.0,0.0,90,0.00,,,0.02,0.00,VWS V14.01,2013-01-27 04:45:00,
2013-01-26 23:50:00,17.3,14.9,30.44,NW,306,0.0,0.0,90,0.00,,,0.02,0.00,VWS V14.01,2013-01-27 04:50:00,
2013-01-26 23:55:00,17.3,14.9,30.44,NW,306,0.0,0.0,90,0.00,,,0.02,0.00,VWS V14.01,2013-01-27 04:55:00,